This is the latest recevied weather packets stored in our database for station/object K5BOU. If no packets are shown the sender has not sent any weather packets the latest 10 day(s).
| Time | Temp. | Humidity | Pressure | Rain* | Wind** | Luminosity | Snow |
|---|---|---|---|---|---|---|---|
| 1777781346 | 15° C | 97% | 1018.4 hPa | 0 mm | - | 0 W/m² | - |
| 1777781044 | 15° C | 97% | 1018.5 hPa | 0 mm | - | 0 W/m² | - |
| 1777780740 | 15° C | 96% | 1018.8 hPa | 0 mm | - | 0 W/m² | - |
| 1777780437 | 15° C | 96% | 1018.6 hPa | 0 mm | - | 0 W/m² | - |
| 1777780134 | 15° C | 96% | 1018.5 hPa | 0 mm | - | 0 W/m² | - |
| 1777779832 | 15° C | 95% | 1018.4 hPa | 0 mm | - | 0 W/m² | - |
| 1777779529 | 15° C | 95% | 1018.4 hPa | 0 mm | - | 0 W/m² | - |
| 1777779227 | 15.56° C | 94% | 1018.3 hPa | 0 mm | - | 0 W/m² | - |
| 1777778924 | 15.56° C | 94% | 1018.3 hPa | 0 mm | - | 0 W/m² | - |
| 1777778623 | 15.56° C | 94% | 1018.3 hPa | 0 mm | - | 0 W/m² | - |
| 1777778320 | 15.56° C | 93% | 1018 hPa | 0 mm | - | 0 W/m² | - |
| 1777778018 | 15.56° C | 93% | 1018.1 hPa | 0 mm | - | 0 W/m² | - |
| 1777777714 | 16.11° C | 92% | 1017.7 hPa | 0 mm | - | 0 W/m² | - |
| 1777777410 | 16.11° C | 91% | 1017.9 hPa | 0 mm | - | 0 W/m² | - |
| 1777777107 | 16.11° C | 90% | 1017.9 hPa | 0 mm | - | 0 W/m² | - |
| 1777776805 | 16.11° C | 89% | 1017.9 hPa | 0 mm | - | 0 W/m² | - |
| 1777776501 | 16.67° C | 89% | 1017.7 hPa | 0 mm | - | 0 W/m² | - |
| 1777776198 | 16.67° C | 89% | 1018 hPa | 0 mm | - | 0 W/m² | - |
| 1777775895 | 16.11° C | 89% | 1017.9 hPa | 0 mm | - | 0 W/m² | - |
| 1777775592 | 16.11° C | 89% | 1017.6 hPa | 0 mm | - | 0 W/m² | - |
| 1777775289 | 16.11° C | 88% | 1017.7 hPa | 0 mm | - | 0 W/m² | - |
| 1777774989 | 16.67° C | 87% | 1017.7 hPa | 0 mm | - | 0 W/m² | - |
| 1777774685 | 16.67° C | 86% | 1017.6 hPa | 0 mm | - | 0 W/m² | - |
| 1777774382 | 17.22° C | 84% | 1017.6 hPa | 0 mm | - | 0 W/m² | - |
| 1777774080 | 17.22° C | 84% | 1017.3 hPa | 0 mm | - | 0 W/m² | - |
* Rain latest hour (hover to see other rain measurements)
** Current wind speed in m/s (hover to see current wind gust speed)